{"data":{"norad_id":49772,"epoch":"2026-09-19T20:33:16.566336Z","epoch_age_seconds":63392,"freshness":"FRESH","line1":"1 49772U 21115BA  26262.85644174  .00027065  00000+0  34362-3 0  9996","line2":"2 49772  53.1943 307.4470 0003448  19.4772 340.6373 15.59242777270644","mean_motion":15.59242777,"eccentricity":0.0003448,"inclination_deg":53.1943,"raan_deg":307.447,"arg_perigee_deg":19.4772,"mean_anomaly_deg":340.6373,"bstar":0.00034362,"rev_number":27064,"period_min":92.352520161779,"perigee_km":387.51377382043,"apogee_km":392.18097584531,"semimajor_km":6767.9843748329,"source":"CELESTRAK","updated_at":"2026-09-20T09:00:15.455867Z"}}